owner,sensor,date,latitude,longitude,vertical_datum,direction_of_sea_water_velocity,sea_water_speed,upward_sea_water_velocity,qcFlag 
TABS,ioos:station:wmo:42044:1,2014-06-01T00:00:00Z,26.1914,-97.0507,2.0,122.9964932,21.99824766,-99999.0,'11111222,11111222,99999999' 
TABS,ioos:station:wmo:42044:1,2014-06-01T00:30:00Z,26.1914,-97.0507,2.0,123.0089208,20.99965952,-99999.0,'11111222,11111222,99999999' 
TABS,ioos:station:wmo:42044:1,2014-06-01T01:00:00Z,26.1914,-97.0507,2.0,122.0085051,18.99834203,-99999.0,'11111222,11111222,99999999' 
TABS,ioos:station:wmo:42044:1,2014-06-01T01:30:00Z,26.1914,-97.0507,2.0,65.01777736,17.00060293,-99999.0,'11111222,11111222,99999999' 
TABS,ioos:station:wmo:42044:1,2014-06-01T02:00:00Z,26.1914,-97.0507,2.0,118.9923401,17.00042647,-99999.0,'11111222,11111222,99999999' 
TABS,ioos:station:wmo:42044:1,2014-06-01T02:30:00Z,26.1914,-97.0507,2.0,310.9745009,13.99990357,-99999.0,'11111222,11111222,99999999' 
TABS,ioos:station:wmo:42044:1,2014-06-01T03:00:00Z,26.1914,-97.0507,2.0,110.9995009,13.00366102,-99999.0,'11111222,11111222,99999999' 
TABS,ioos:station:wmo:42044:1,2014-06-01T03:30:00Z,26.1914,-97.0507,2.0,116.9843885,10.99727694,-99999.0,'11111222,11111222,99999999' 
TABS,ioos:station:wmo:42044:1,2014-06-01T04:00:00Z,26.1914,-97.0507,2.0,123.0277939,11.99896662,-99999.0,'11111222,11111222,99999999' 
TABS,ioos:station:wmo:42044:1,2014-06-01T04:30:00Z,26.1914,-97.0507,2.0,134.9998948,8.994398257,-99999.0,'11133222,11111222,99999999' 
TABS,ioos:station:wmo:42044:1,2014-06-01T05:00:00Z,26.1914,-97.0507,2.0,137.0260184,6.000016667,-99999.0,'11133222,11111222,99999999' 
TABS,ioos:station:wmo:42044:1,2014-06-01T06:00:00Z,26.1914,-97.0507,2.0,125.9851334,6.994833808,-99999.0,'11133222,11111222,99999999' 
TABS,ioos:station:wmo:42044:1,2014-06-01T06:30:00Z,26.1914,-97.0507,2.0,155.9354848,3.997424171,-99999.0,'11133222,11111222,99999999' 
TABS,ioos:station:wmo:42044:1,2014-06-01T07:00:00Z,26.1914,-97.0507,2.0,146.014465,6.9948624,-99999.0,'11133222,11111222,99999999' 
TABS,ioos:station:wmo:42044:1,2014-06-01T07:30:00Z,26.1914,-97.0507,2.0,175.988963,6.004706487,-99999.0,'11133222,11111222,99999999' 
TABS,ioos:station:wmo:42044:1,2014-06-01T08:00:00Z,26.1914,-97.0507,2.0,159.0034335,7.005119556,-99999.0,'11133222,11111222,99999999' 
TABS,ioos:station:wmo:42044:1,2014-06-01T08:30:00Z,26.1914,-97.0507,2.0,146.014465,6.9948624,-99999.0,'11133222,11111222,99999999' 
TABS,ioos:station:wmo:42044:1,2014-06-01T09:00:00Z,26.1914,-97.0507,2.0,160.9955691,7.001628382,-99999.0,'11133222,11111222,99999999' 
TABS,ioos:station:wmo:42044:1,2014-06-01T09:30:00Z,26.1914,-97.0507,2.0,137.9956609,5.006086296,-99999.0,'11133222,11111222,99999999' 
TABS,ioos:station:wmo:42044:1,2014-06-01T10:00:00Z,26.1914,-97.0507,2.0,177.0171425,4.996768956,-99999.0,'11133222,11111222,99999999' 
TABS,ioos:station:wmo:42044:1,2014-06-01T10:30:00Z,26.1914,-97.0507,2.0,191.0367848,6.999464265,-99999.0,'11133222,11111222,99999999' 
TABS,ioos:station:wmo:42044:1,2014-06-01T11:00:00Z,26.1914,-97.0507,2.0,171.0271839,5.001199856,-99999.0,'11133222,11111222,99999999' 
TABS,ioos:station:wmo:42044:1,2014-06-01T11:30:00Z,26.1914,-97.0507,2.0,194.9911286,8.002362151,-99999.0,'11133222,11111222,99999999' 
TABS,ioos:station:wmo:42044:1,2014-06-01T12:00:00Z,26.1914,-97.0507,2.0,198.0063862,10.99870902,-99999.0,'11111222,11111222,99999999' 
TABS,ioos:station:wmo:42044:1,2014-06-01T12:30:00Z,26.1914,-97.0507,2.0,191.9966608,8.996493761,-99999.0,'11133222,11111222,99999999' 
TABS,ioos:station:wmo:42044:1,2014-06-01T13:00:00Z,26.1914,-97.0507,2.0,188.983852,12.99948076,-99999.0,'11111222,11111222,99999999' 
TABS,ioos:station:wmo:42044:1,2014-06-01T13:30:00Z,26.1914,-97.0507,2.0,200.9936916,16.99838228,-99999.0,'11111222,11111222,99999999' 
TABS,ioos:station:wmo:42044:1,2014-06-01T14:00:00Z,26.1914,-97.0507,2.0,195.000872,18.00354687,-99999.0,'11111222,11111222,99999999' 
TABS,ioos:station:wmo:42044:1,2014-06-01T14:30:00Z,26.1914,-97.0507,2.0,187.9909933,21.00396153,-99999.0,'11111222,11111222,99999999' 
TABS,ioos:station:wmo:42044:1,2014-06-01T15:00:00Z,26.1914,-97.0507,2.0,244.9953296,22.00212717,-99999.0,'11111222,11111222,99999999' 
TABS,ioos:station:wmo:42044:1,2014-06-01T15:30:00Z,26.1914,-97.0507,2.0,279.0057976,19.99648469,-99999.0,'11111222,11111222,99999999' 
TABS,ioos:station:wmo:42044:1,2014-06-01T16:00:00Z,26.1914,-97.0507,2.0,173.9850841,20.99558049,-99999.0,'11111222,11111222,99999999' 
TABS,ioos:station:wmo:42044:1,2014-06-01T16:30:00Z,26.1914,-97.0507,2.0,179.0131287,18.00266925,-99999.0,'11111222,11111222,99999999' 
TABS,ioos:station:wmo:42044:1,2014-06-01T17:00:00Z,26.1914,-97.0507,2.0,122.0085051,18.99834203,-99999.0,'11111222,11111222,99999999' 
TABS,ioos:station:wmo:42044:1,2014-06-01T17:30:00Z,26.1914,-97.0507,2.0,176.0088858,25.00062399,-99999.0,'11111222,11111222,99999999' 
TABS,ioos:station:wmo:42044:1,2014-06-01T18:00:00Z,26.1914,-97.0507,2.0,182.0052297,22.003477,-99999.0,'11111222,11111222,99999999' 
TABS,ioos:station:wmo:42044:1,2014-06-01T18:30:00Z,26.1914,-97.0507,2.0,183.0088062,24.00309355,-99999.0,'11111222,11111222,99999999' 
TABS,ioos:station:wmo:42044:1,2014-06-01T19:00:00Z,26.1914,-97.0507,2.0,185.9905232,22.99558436,-99999.0,'11111222,11111222,99999999' 
TABS,ioos:station:wmo:42044:1,2014-06-01T19:30:00Z,26.1914,-97.0507,2.0,178.9903993,21.00325927,-99999.0,'11111222,11111222,99999999' 
TABS,ioos:station:wmo:42044:1,2014-06-01T20:00:00Z,26.1914,-97.0507,2.0,182.0052297,22.003477,-99999.0,'11111222,11111222,99999999' 
TABS,ioos:station:wmo:42044:1,2014-06-01T20:30:00Z,26.1914,-97.0507,2.0,177.0092659,23.00132387,-99999.0,'11111222,11111222,99999999' 
TABS,ioos:station:wmo:42044:1,2014-06-01T21:00:00Z,26.1914,-97.0507,2.0,179.003444,23.003478,-99999.0,'11111222,11111222,99999999' 
TABS,ioos:station:wmo:42044:1,2014-06-01T21:30:00Z,26.1914,-97.0507,2.0,173.0076473,23.00106302,-99999.0,'11111222,11111222,99999999' 
TABS,ioos:station:wmo:42044:1,2014-06-01T22:00:00Z,26.1914,-97.0507,2.0,165.0090419,23.00284548,-99999.0,'11111222,11111222,99999999' 
TABS,ioos:station:wmo:42044:1,2014-06-01T22:30:00Z,26.1914,-97.0507,2.0,155.9354848,3.997424171,-99999.0,'11133222,11111222,99999999' 
TABS,ioos:station:wmo:42044:1,2014-06-01T23:30:00Z,26.1914,-97.0507,2.0,173.0076473,23.00106302,-99999.0,'11111222,11111222,99999999' 
TABS,ioos:station:wmo:42044:1,2014-06-02T00:00:00Z,26.1914,-97.0507,2.0,171.0085633,23.9948432,-99999.0,'11111222,11111222,99999999' 
TABS,ioos:station:wmo:42044:1,2014-06-02T00:30:00Z,26.1914,-97.0507,2.0,179.0102359,22.00328157,-99999.0,'11111222,11111222,99999999' 
TABS,ioos:station:wmo:42044:1,2014-06-02T01:00:00Z,26.1914,-97.0507,2.0,175.9870552,14.00433147,-99999.0,'11111222,11111222,99999999' 
TABS,ioos:station:wmo:42044:1,2014-06-02T01:30:00Z,26.1914,-97.0507,2.0,173.9850841,20.99558049,-99999.0,'11111222,11111222,99999999' 
TABS,ioos:station:wmo:42044:1,2014-06-02T02:00:00Z,26.1914,-97.0507,2.0,171.0083748,19.00352073,-99999.0,'11111222,11111222,99999999' 
TABS,ioos:station:wmo:42044:1,2014-06-02T02:30:00Z,26.1914,-97.0507,2.0,185.9905232,22.99558436,-99999.0,'11111222,11111222,99999999' 
TABS,ioos:station:wmo:42044:1,2014-06-02T03:00:00Z,26.1914,-97.0507,2.0,183.0025315,20.99883092,-99999.0,'11111222,11111222,99999999' 
TABS,ioos:station:wmo:42044:1,2014-06-02T03:30:00Z,26.1914,-97.0507,2.0,87.01735294,4.996768956,-99999.0,'11133222,11111222,99999999' 
TABS,ioos:station:wmo:42044:1,2014-06-02T04:00:00Z,26.1914,-97.0507,2.0,184.9889435,22.99713243,-99999.0,'11111222,11111222,99999999' 
TABS,ioos:station:wmo:42044:1,2014-06-02T04:30:00Z,26.1914,-97.0507,2.0,179.9997895,21.0,-99999.0,'11111222,11111222,99999999' 
TABS,ioos:station:wmo:42044:1,2014-06-02T06:00:00Z,26.1914,-97.0507,2.0,194.9891847,13.99624235,-99999.0,'11111222,11111222,99999999' 
TABS,ioos:station:wmo:42044:1,2014-06-02T06:30:00Z,26.1914,-97.0507,2.0,198.0204547,13.99660673,-99999.0,'11111222,11111222,99999999' 
TABS,ioos:station:wmo:42044:1,2014-06-02T07:00:00Z,26.1914,-97.0507,2.0,194.0161438,13.99673176,-99999.0,'11111222,11111222,99999999' 
TABS,ioos:station:wmo:42044:1,2014-06-02T07:30:00Z,26.1914,-97.0507,2.0,197.999822,9.999409983,-99999.0,'11133222,11111222,99999999' 
TABS,ioos:station:wmo:42044:1,2014-06-02T08:00:00Z,26.1914,-97.0507,2.0,191.969528,8.004030235,-99999.0,'11133222,11111222,99999999' 
TABS,ioos:station:wmo:42044:1,2014-06-02T08:30:00Z,26.1914,-97.0507,2.0,197.9918003,9.00011111,-99999.0,'11133222,11111222,99999999' 
TABS,ioos:station:wmo:42044:1,2014-06-02T09:00:00Z,26.1914,-97.0507,2.0,213.0067741,10.00472888,-99999.0,'11111222,11111222,99999999' 
TABS,ioos:station:wmo:42044:1,2014-06-02T09:30:00Z,26.1914,-97.0507,2.0,223.9580601,7.001514122,-99999.0,'11133222,11111222,99999999' 
TABS,ioos:station:wmo:42044:1,2014-06-02T10:00:00Z,26.1914,-97.0507,2.0,220.9429559,3.998099549,-99999.0,'11133222,11111222,99999999' 
TABS,ioos:station:wmo:42044:1,2014-06-02T10:30:00Z,26.1914,-97.0507,2.0,208.9986989,12.00509892,-99999.0,'11111222,11111222,99999999' 
TABS,ioos:station:wmo:42044:1,2014-06-02T11:00:00Z,26.1914,-97.0507,2.0,200.0195459,8.003624179,-99999.0,'11133222,11111222,99999999' 
TABS,ioos:station:wmo:42044:1,2014-06-02T11:30:00Z,26.1914,-97.0507,2.0,188.9723952,5.001199856,-99999.0,'11133222,11111222,99999999' 
TABS,ioos:station:wmo:42044:1,2014-06-02T12:00:00Z,26.1914,-97.0507,2.0,215.9954731,7.996930661,-99999.0,'11133222,11111222,99999999' 
TABS,ioos:station:wmo:42044:1,2014-06-02T12:30:00Z,26.1914,-97.0507,2.0,214.9878159,11.99847074,-99999.0,'11111222,11111222,99999999' 
TABS,ioos:station:wmo:42044:1,2014-06-02T13:30:00Z,26.1914,-97.0507,2.0,205.988426,12.00382023,-99999.0,'11111222,11111222,99999999' 
TABS,ioos:station:wmo:42044:1,2014-06-02T14:00:00Z,26.1914,-97.0507,2.0,208.9901073,12.99872686,-99999.0,'11111222,11111222,99999999' 
TABS,ioos:station:wmo:42044:1,2014-06-02T14:30:00Z,26.1914,-97.0507,2.0,199.9926368,15.0042294,-99999.0,'11111222,11111222,99999999' 
TABS,ioos:station:wmo:42044:1,2014-06-02T15:00:00Z,26.1914,-97.0507,2.0,208.9901073,12.99872686,-99999.0,'11111222,11111222,99999999' 
TABS,ioos:station:wmo:42044:1,2014-06-02T15:30:00Z,26.1914,-97.0507,2.0,212.7349393,0.998599019,-99999.0,'11133222,11111222,99999999' 
TABS,ioos:station:wmo:42044:1,2014-06-02T16:00:00Z,26.1914,-97.0507,2.0,185.9873545,13.99635667,-99999.0,'11111222,11111222,99999999' 
TABS,ioos:station:wmo:42044:1,2014-06-02T16:30:00Z,26.1914,-97.0507,2.0,183.0088062,16.00206237,-99999.0,'11111222,11111222,99999999' 
TABS,ioos:station:wmo:42044:1,2014-06-02T17:00:00Z,26.1914,-97.0507,2.0,181.9903062,19.00146573,-99999.0,'11111222,11111222,99999999' 
TABS,ioos:station:wmo:42044:1,2014-06-02T17:30:00Z,26.1914,-97.0507,2.0,170.9944129,19.99648469,-99999.0,'11111222,11111222,99999999' 
TABS,ioos:station:wmo:42044:1,2014-06-02T18:00:00Z,26.1914,-97.0507,2.0,164.0111533,20.00382463,-99999.0,'11111222,11111222,99999999' 
TABS,ioos:station:wmo:42044:1,2014-06-02T18:30:00Z,26.1914,-97.0507,2.0,170.0023918,22.00412007,-99999.0,'11111222,11111222,99999999' 
TABS,ioos:station:wmo:42044:1,2014-06-02T19:00:00Z,26.1914,-97.0507,2.0,231.0008656,19.00511773,-99999.0,'11111222,11111222,99999999' 
TABS,ioos:station:wmo:42044:1,2014-06-02T19:30:00Z,26.1914,-97.0507,2.0,173.0076473,23.00106302,-99999.0,'11111222,11111222,99999999' 
TABS,ioos:station:wmo:42044:1,2014-06-02T20:00:00Z,26.1914,-97.0507,2.0,169.9970741,18.99879207,-99999.0,'11111222,11111222,99999999' 
TABS,ioos:station:wmo:42044:1,2014-06-02T20:30:00Z,26.1914,-97.0507,2.0,182.0052297,22.003477,-99999.0,'11111222,11111222,99999999' 
TABS,ioos:station:wmo:42044:1,2014-06-02T21:00:00Z,26.1914,-97.0507,2.0,172.9920532,19.99940249,-99999.0,'11111222,11111222,99999999' 
TABS,ioos:station:wmo:42044:1,2014-06-02T21:30:00Z,26.1914,-97.0507,2.0,170.0100849,20.00327223,-99999.0,'11111222,11111222,99999999' 
TABS,ioos:station:wmo:42044:1,2014-06-02T23:00:00Z,26.1914,-97.0507,2.0,170.9944129,19.99648469,-99999.0,'11111222,11111222,99999999' 
TABS,ioos:station:wmo:42044:1,2014-06-02T23:30:00Z,26.1914,-97.0507,2.0,169.9881462,18.00416063,-99999.0,'11111222,11111222,99999999' 
TABS,ioos:station:wmo:42044:1,2014-06-03T00:00:00Z,26.1914,-97.0507,2.0,170.9961069,23.00344322,-99999.0,'11111222,11111222,99999999' 
TABS,ioos:station:wmo:42044:1,2014-06-03T00:30:00Z,26.1914,-97.0507,2.0,219.006909,16.99982647,-99999.0,'11111222,11111222,99999999' 
TABS,ioos:station:wmo:42044:1,2014-06-03T01:00:00Z,26.1914,-97.0507,2.0,169.9970741,18.99879207,-99999.0,'11111222,11111222,99999999' 
TABS,ioos:station:wmo:42044:1,2014-06-03T01:30:00Z,26.1914,-97.0507,2.0,167.0097246,18.99613119,-99999.0,'11111222,11111222,99999999' 
TABS,ioos:station:wmo:42044:1,2014-06-03T02:00:00Z,26.1914,-97.0507,2.0,173.9850841,20.99558049,-99999.0,'11111222,11111222,99999999' 
TABS,ioos:station:wmo:42044:1,2014-06-03T02:30:00Z,26.1914,-97.0507,2.0,177.00708,18.00455498,-99999.0,'11111222,11111222,99999999' 
TABS,ioos:station:wmo:42044:1,2014-06-03T03:00:00Z,26.1914,-97.0507,2.0,188.0173079,17.99590231,-99999.0,'11111222,11111222,99999999' 
TABS,ioos:station:wmo:42044:1,2014-06-03T03:30:00Z,26.1914,-97.0507,2.0,188.0173079,17.99590231,-99999.0,'11111222,11111222,99999999' 
TABS,ioos:station:wmo:42044:1,2014-06-03T04:00:00Z,26.1914,-97.0507,2.0,192.0119851,16.00035625,-99999.0,'11111222,11111222,99999999' 
TABS,ioos:station:wmo:42044:1,2014-06-03T04:30:00Z,26.1914,-97.0507,2.0,178.9972181,16.00244981,-99999.0,'11111222,11111222,99999999' 
TABS,ioos:station:wmo:42044:1,2014-06-03T05:30:00Z,26.1914,-97.0507,2.0,168.0095336,18.00276923,-99999.0,'11111222,11111222,99999999' 
TABS,ioos:station:wmo:42044:1,2014-06-03T06:00:00Z,26.1914,-97.0507,2.0,176.9809866,15.00081664,-99999.0,'11111222,11111222,99999999' 
TABS,ioos:station:wmo:42044:1,2014-06-03T06:30:00Z,26.1914,-97.0507,2.0,218.9935194,15.00230649,-99999.0,'11111222,11111222,99999999' 
TABS,ioos:station:wmo:42044:1,2014-06-03T07:00:00Z,26.1914,-97.0507,2.0,179.9997895,16.0,-99999.0,'11111222,11111222,99999999' 
TABS,ioos:station:wmo:42044:1,2014-06-03T07:30:00Z,26.1914,-97.0507,2.0,184.9928701,17.00452881,-99999.0,'11111222,11111222,99999999' 
TABS,ioos:station:wmo:42044:1,2014-06-03T08:00:00Z,26.1914,-97.0507,2.0,173.9927966,15.00237648,-99999.0,'11111222,11111222,99999999' 
TABS,ioos:station:wmo:42044:1,2014-06-03T08:30:00Z,26.1914,-97.0507,2.0,185.0113107,19.00264455,-99999.0,'11111222,11111222,99999999' 
TABS,ioos:station:wmo:42044:1,2014-06-03T09:00:00Z,26.1914,-97.0507,2.0,177.00708,18.00455498,-99999.0,'11111222,11111222,99999999' 
TABS,ioos:station:wmo:42044:1,2014-06-03T09:30:00Z,26.1914,-97.0507,2.0,178.8540294,1.00019998,-99999.0,'11133222,11111222,99999999' 
TABS,ioos:station:wmo:42044:1,2014-06-03T10:00:00Z,26.1914,-97.0507,2.0,227.002546,16.99508753,-99999.0,'11111222,11111222,99999999' 
TABS,ioos:station:wmo:42044:1,2014-06-03T10:30:00Z,26.1914,-97.0507,2.0,179.9997895,21.0,-99999.0,'11111222,11111222,99999999' 
TABS,ioos:station:wmo:42044:1,2014-06-03T11:00:00Z,26.1914,-97.0507,2.0,189.0034722,23.00344322,-99999.0,'11111222,11111222,99999999' 
TABS,ioos:station:wmo:42044:1,2014-06-03T11:30:00Z,26.1914,-97.0507,2.0,176.9900208,19.99758485,-99999.0,'11111222,11111222,99999999' 
TABS,ioos:station:wmo:42044:1,2014-06-03T12:00:00Z,26.1914,-97.0507,2.0,190.9867088,16.0033309,-99999.0,'11111222,11111222,99999999' 
TABS,ioos:station:wmo:42044:1,2014-06-03T12:30:00Z,26.1914,-97.0507,2.0,182.0053208,20.00225237,-99999.0,'11111222,11111222,99999999' 
TABS,ioos:station:wmo:42044:1,2014-06-03T13:00:00Z,26.1914,-97.0507,2.0,188.9954115,22.00060226,-99999.0,'11111222,11111222,99999999' 
TABS,ioos:station:wmo:42044:1,2014-06-03T13:30:00Z,26.1914,-97.0507,2.0,196.9959443,17.00260274,-99999.0,'11111222,11111222,99999999' 
TABS,ioos:station:wmo:42044:1,2014-06-03T14:00:00Z,26.1914,-97.0507,2.0,190.9867088,16.0033309,-99999.0,'11111222,11111222,99999999' 
TABS,ioos:station:wmo:42044:1,2014-06-03T14:30:00Z,26.1914,-97.0507,2.0,192.0064698,19.99747984,-99999.0,'11111222,11111222,99999999' 
TABS,ioos:station:wmo:42044:1,2014-06-03T15:00:00Z,26.1914,-97.0507,2.0,191.011898,19.99823242,-99999.0,'11111222,11111222,99999999' 
TABS,ioos:station:wmo:42044:1,2014-06-03T15:30:00Z,26.1914,-97.0507,2.0,188.0154534,16.99605248,-99999.0,'11111222,11111222,99999999' 
TABS,ioos:station:wmo:42044:1,2014-06-03T16:00:00Z,26.1914,-97.0507,2.0,182.0054322,18.00102775,-99999.0,'11111222,11111222,99999999' 
TABS,ioos:station:wmo:42044:1,2014-06-03T16:30:00Z,26.1914,-97.0507,2.0,192.0064698,19.99747984,-99999.0,'11111222,11111222,99999999' 
TABS,ioos:station:wmo:42044:1,2014-06-03T17:00:00Z,26.1914,-97.0507,2.0,195.0006474,16.99930587,-99999.0,'11111222,11111222,99999999' 
TABS,ioos:station:wmo:42044:1,2014-06-03T17:30:00Z,26.1914,-97.0507,2.0,192.0001646,13.99586367,-99999.0,'11111222,11111222,99999999' 
TABS,ioos:station:wmo:42044:1,2014-06-03T18:00:00Z,26.1914,-97.0507,2.0,212.0022061,21.00173802,-99999.0,'11111222,11111222,99999999' 
TABS,ioos:station:wmo:42044:1,2014-06-03T18:30:00Z,26.1914,-97.0507,2.0,185.9982847,19.99950499,-99999.0,'11111222,11111222,99999999' 
TABS,ioos:station:wmo:42044:1,2014-06-03T19:00:00Z,26.1914,-97.0507,2.0,184.991859,19.99584957,-99999.0,'11111222,11111222,99999999' 
TABS,ioos:station:wmo:42044:1,2014-06-03T19:30:00Z,26.1914,-97.0507,2.0,179.9997895,20.0,-99999.0,'11111222,11111222,99999999' 
TABS,ioos:station:wmo:42044:1,2014-06-03T20:00:00Z,26.1914,-97.0507,2.0,179.0047547,19.00286557,-99999.0,'11111222,11111222,99999999' 
TABS,ioos:station:wmo:42044:1,2014-06-03T20:30:00Z,26.1914,-97.0507,2.0,176.0133164,21.00081189,-99999.0,'11111222,11111222,99999999' 
TABS,ioos:station:wmo:42044:1,2014-06-03T21:00:00Z,26.1914,-97.0507,2.0,177.0123738,18.99581533,-99999.0,'11111222,11111222,99999999' 
TABS,ioos:station:wmo:42044:1,2014-06-03T21:30:00Z,26.1914,-97.0507,2.0,167.987594,16.00035625,-99999.0,'11111222,11111222,99999999' 
TABS,ioos:station:wmo:42044:1,2014-06-03T22:30:00Z,26.1914,-97.0507,2.0,183.0088062,16.00206237,-99999.0,'11111222,11111222,99999999' 
TABS,ioos:station:wmo:42044:1,2014-06-03T23:00:00Z,26.1914,-97.0507,2.0,182.0054322,18.00102775,-99999.0,'11111222,11111222,99999999' 
TABS,ioos:station:wmo:42044:1,2014-06-03T23:30:00Z,26.1914,-97.0507,2.0,167.987594,16.00035625,-99999.0,'11111222,11111222,99999999' 
TABS,ioos:station:wmo:42044:1,2014-06-04T00:00:00Z,26.1914,-97.0507,2.0,174.0041276,17.99845549,-99999.0,'11111222,11111222,99999999' 
TABS,ioos:station:wmo:42044:1,2014-06-04T00:30:00Z,26.1914,-97.0507,2.0,181.9886567,17.00024117,-99999.0,'11111222,11111222,99999999' 
TABS,ioos:station:wmo:42044:1,2014-06-04T01:00:00Z,26.1914,-97.0507,2.0,175.9870552,14.00433147,-99999.0,'11111222,11111222,99999999' 
TABS,ioos:station:wmo:42044:1,2014-06-04T01:30:00Z,26.1914,-97.0507,2.0,173.9927966,15.00237648,-99999.0,'11111222,11111222,99999999' 
TABS,ioos:station:wmo:42044:1,2014-06-04T02:00:00Z,26.1914,-97.0507,2.0,242.9769668,13.99823203,-99999.0,'11111222,11111222,99999999' 
TABS,ioos:station:wmo:42044:1,2014-06-04T02:30:00Z,26.1914,-97.0507,2.0,163.9982257,14.00254263,-99999.0,'11111222,11111222,99999999' 
TABS,ioos:station:wmo:42044:1,2014-06-04T03:00:00Z,26.1914,-97.0507,2.0,155.9985647,11.99733304,-99999.0,'11111222,11111222,99999999' 
TABS,ioos:station:wmo:42044:1,2014-06-04T03:30:00Z,26.1914,-97.0507,2.0,170.0161775,14.99709639,-99999.0,'11111222,11111222,99999999' 
TABS,ioos:station:wmo:42044:1,2014-06-04T04:00:00Z,26.1914,-97.0507,2.0,164.9792145,12.00000833,-99999.0,'11111222,11111222,99999999' 
TABS,ioos:station:wmo:42044:1,2014-06-04T04:30:00Z,26.1914,-97.0507,2.0,155.9973711,16.00389015,-99999.0,'11111222,11111222,99999999' 
TABS,ioos:station:wmo:42044:1,2014-06-04T05:00:00Z,26.1914,-97.0507,2.0,176.9760539,10.99530809,-99999.0,'11111222,11111222,99999999' 
TABS,ioos:station:wmo:42044:1,2014-06-04T05:30:00Z,26.1914,-97.0507,2.0,175.9856232,11.99943749,-99999.0,'11111222,11111222,99999999' 
TABS,ioos:station:wmo:42044:1,2014-06-04T06:00:00Z,26.1914,-97.0507,2.0,161.9830928,12.99730741,-99999.0,'11111222,11111222,99999999' 
TABS,ioos:station:wmo:42044:1,2014-06-04T06:30:00Z,26.1914,-97.0507,2.0,164.9912753,11.00542593,-99999.0,'11111222,11111222,99999999' 
TABS,ioos:station:wmo:42044:1,2014-06-04T07:00:00Z,26.1914,-97.0507,2.0,161.999757,9.999409983,-99999.0,'11133222,11111222,99999999' 
TABS,ioos:station:wmo:42044:1,2014-06-04T07:30:00Z,26.1914,-97.0507,2.0,179.9997895,12.0,-99999.0,'11111222,11111222,99999999' 
TABS,ioos:station:wmo:42044:1,2014-06-04T08:00:00Z,26.1914,-97.0507,2.0,183.0100598,11.99655367,-99999.0,'11111222,11111222,99999999' 
TABS,ioos:station:wmo:42044:1,2014-06-04T08:30:00Z,26.1914,-97.0507,2.0,279.0152305,11.99820403,-99999.0,'11111222,11111222,99999999' 
TABS,ioos:station:wmo:42044:1,2014-06-04T09:00:00Z,26.1914,-97.0507,2.0,216.0036736,8.999027725,-99999.0,'11133222,11111222,99999999' 
TABS,ioos:station:wmo:42044:1,2014-06-04T09:30:00Z,26.1914,-97.0507,2.0,193.9825328,12.99506445,-99999.0,'11111222,11111222,99999999' 
TABS,ioos:station:wmo:42044:1,2014-06-04T10:00:00Z,26.1914,-97.0507,2.0,197.0007164,12.00460328,-99999.0,'11111222,11111222,99999999' 
TABS,ioos:station:wmo:42044:1,2014-06-04T10:30:00Z,26.1914,-97.0507,2.0,208.9986989,12.00509892,-99999.0,'11111222,11111222,99999999' 
TABS,ioos:station:wmo:42044:1,2014-06-04T11:00:00Z,26.1914,-97.0507,2.0,210.0004472,9.999779998,-99999.0,'11133222,11111222,99999999' 
TABS,ioos:station:wmo:42044:1,2014-06-04T11:30:00Z,26.1914,-97.0507,2.0,240.0060822,8.001556099,-99999.0,'11133222,11111222,99999999' 
TABS,ioos:station:wmo:42044:1,2014-06-04T12:00:00Z,26.1914,-97.0507,2.0,224.0372485,7.998506111,-99999.0,'11133222,11111222,99999999' 
TABS,ioos:station:wmo:42044:1,2014-06-04T12:30:00Z,26.1914,-97.0507,2.0,212.9835503,9.000694418,-99999.0,'11133222,11111222,99999999' 
TABS,ioos:station:wmo:42044:1,2014-06-04T13:00:00Z,26.1914,-97.0507,2.0,216.0036736,8.999027725,-99999.0,'11133222,11111222,99999999' 
TABS,ioos:station:wmo:42044:1,2014-06-04T13:30:00Z,26.1914,-97.0507,2.0,236.0114887,7.996111555,-99999.0,'11133222,11111222,99999999' 
TABS,ioos:station:wmo:42044:1,2014-06-04T14:00:00Z,26.1914,-97.0507,2.0,222.0140141,10.99629483,-99999.0,'11111222,11111222,99999999' 
TABS,ioos:station:wmo:42044:1,2014-06-04T14:30:00Z,26.1914,-97.0507,2.0,247.9747847,9.999769997,-99999.0,'11133222,11111222,99999999' 
TABS,ioos:station:wmo:42044:1,2014-06-04T15:00:00Z,26.1914,-97.0507,2.0,53.13018857,2.0,-99999.0,'11133222,11111222,99999999' 
TABS,ioos:station:wmo:42044:1,2014-06-04T15:30:00Z,26.1914,-97.0507,2.0,239.9989215,9.999779998,-99999.0,'11133222,11111222,99999999' 
TABS,ioos:station:wmo:42044:1,2014-06-04T16:00:00Z,26.1914,-97.0507,2.0,231.0192774,12.00214148,-99999.0,'11111222,11111222,99999999' 
TABS,ioos:station:wmo:42044:1,2014-06-04T16:30:00Z,26.1914,-97.0507,2.0,233.0063239,12.99603016,-99999.0,'11111222,11111222,99999999' 
TABS,ioos:station:wmo:42044:1,2014-06-04T17:00:00Z,26.1914,-97.0507,2.0,227.9820418,13.99846063,-99999.0,'11111222,11111222,99999999' 
TABS,ioos:station:wmo:42044:1,2014-06-04T17:30:00Z,26.1914,-97.0507,2.0,229.9910059,13.00350722,-99999.0,'11111222,11111222,99999999' 
TABS,ioos:station:wmo:42044:1,2014-06-04T18:00:00Z,26.1914,-97.0507,2.0,242.9769668,13.99823203,-99999.0,'11111222,11111222,99999999' 
TABS,ioos:station:wmo:42044:1,2014-06-04T18:30:00Z,26.1914,-97.0507,2.0,244.9901597,14.00294612,-99999.0,'11111222,11111222,99999999' 
TABS,ioos:station:wmo:42044:1,2014-06-04T19:00:00Z,26.1914,-97.0507,2.0,234.0111696,13.00153837,-99999.0,'11111222,11111222,99999999' 
TABS,ioos:station:wmo:42044:1,2014-06-04T19:30:00Z,26.1914,-97.0507,2.0,233.0008688,16.00204049,-99999.0,'11111222,11111222,99999999' 
TABS,ioos:station:wmo:42044:1,2014-06-04T20:00:00Z,26.1914,-97.0507,2.0,230.9968967,18.00247205,-99999.0,'11111222,11111222,99999999' 
TABS,ioos:station:wmo:42044:1,2014-06-04T20:30:00Z,26.1914,-97.0507,2.0,230.0025593,18.00080554,-99999.0,'11111222,11111222,99999999' 